Time,TemperatureF,DewpointF,PressureIn,WindDirection,WindDirectionDegrees,WindSpeedMPH,WindSpeedGustMPH,Humidity,HourlyPrecipIn,Conditions,Clouds,dailyrainin,SoftwareType,DateUTC
2013-02-20 00:00:00,20.7,8.6,29.77,West,260,11.5,11.5,59,0.00,-SN,,0.16,WeatherDisplay:10.37,2013-02-20 05:00:00,
2013-02-20 00:01:00,20.7,8.6,29.77,WNW,284,9.2,9.2,59,0.00,-SN,,0.00,WeatherDisplay:10.37,2013-02-20 05:01:00,
2013-02-20 00:06:00,20.7,9.3,29.77,WNW,297,15.0,15.0,61,0.00,-SN,,0.00,WeatherDisplay:10.37,2013-02-20 05:06:00,
2013-02-20 00:11:00,20.5,10.6,29.77,SSW,205,15.0,15.0,65,0.00,-SN,,0.00,WeatherDisplay:10.37,2013-02-20 05:11:00,
2013-02-20 00:16:00,20.3,12.4,29.77,WNW,299,15.0,15.0,71,0.00,-SN,,0.00,WeatherDisplay:10.37,2013-02-20 05:16:00,
2013-02-20 00:21:00,20.1,13.8,29.77,West,276,20.7,20.7,76,0.00,-SN,,0.00,WeatherDisplay:10.37,2013-02-20 05:21:00,
2013-02-20 00:26:00,19.9,14.8,29.77,WSW,250,17.3,17.3,80,0.00,-SN,,0.00,WeatherDisplay:10.37,2013-02-20 05:26:00,
2013-02-20 00:31:00,19.8,15.7,29.77,West,262,17.3,17.3,84,0.00,-SN,,0.00,WeatherDisplay:10.37,2013-02-20 05:31:00,
2013-02-20 00:36:00,19.8,16.3,29.77,NW,308,25.3,25.3,86,0.00,-SN,,0.00,WeatherDisplay:10.37,2013-02-20 05:36:00,
2013-02-20 00:41:00,19.8,16.3,29.77,WNW,283,15.0,15.0,86,0.00,-SN,,0.00,WeatherDisplay:10.37,2013-02-20 05:41:00,
2013-02-20 00:46:00,19.8,16.3,29.77,WNW,288,12.7,12.7,86,0.00,-SN,,0.00,WeatherDisplay:10.37,2013-02-20 05:46:00,
2013-02-20 00:51:00,19.8,16.3,29.77,NW,310,16.1,16.1,86,0.00,-SN,,0.00,WeatherDisplay:10.37,2013-02-20 05:51:00,
2013-02-20 00:56:00,19.6,16.1,29.77,WNW,287,17.3,17.3,86,0.00,-SN,,0.00,WeatherDisplay:10.37,2013-02-20 05:56:00,
2013-02-20 01:01:00,19.6,16.1,29.77,West,274,17.0,17.0,86,0.00,-SN,,0.00,WeatherDisplay:10.37,2013-02-20 06:01:00,
2013-02-20 01:06:00,19.4,15.9,29.77,WSW,257,16.1,16.1,86,0.00,-SN,,0.00,WeatherDisplay:10.37,2013-02-20 06:06:00,
2013-02-20 01:11:00,19.4,15.9,29.77,NW,307,12.7,12.7,86,0.00,-SN,,0.00,WeatherDisplay:10.37,2013-02-20 06:11:00,
2013-02-20 01:16:00,19.4,15.9,29.77,WNW,285,17.3,17.3,86,0.00,-SN,,0.00,WeatherDisplay:10.37,2013-02-20 06:16:00,
2013-02-20 01:21:00,19.4,16.2,29.77,WNW,295,11.5,11.5,87,0.00,-SN,,0.00,WeatherDisplay:10.37,2013-02-20 06:21:00,
2013-02-20 01:26:00,19.4,16.4,29.77,WNW,296,10.4,10.4,88,0.00,-SN,,0.00,WeatherDisplay:10.37,2013-02-20 06:26:00,
2013-02-20 01:31:00,19.2,16.5,29.77,NNW,336,11.5,11.5,89,0.00,-SN,,0.00,WeatherDisplay:10.37,2013-02-20 06:31:00,
2013-02-20 01:36:00,19.2,16.5,29.77,NNW,336,15.4,15.4,89,0.00,-SN,,0.00,WeatherDisplay:10.37,2013-02-20 06:36:00,
2013-02-20 01:41:00,18.9,16.4,29.77,WNW,290,15.4,15.4,90,0.00,-SN,,0.00,WeatherDisplay:10.37,2013-02-20 06:41:00,
2013-02-20 01:46:00,18.5,15.8,29.77,WNW,298,25.3,25.3,89,0.00,-SN,,0.00,WeatherDisplay:10.37,2013-02-20 06:46:00,
2013-02-20 01:51:00,18.3,15.4,29.77,West,278,17.4,17.4,88,0.00,-SN,,0.00,WeatherDisplay:10.37,2013-02-20 06:51:00,
2013-02-20 01:56:00,18.1,15.2,29.77,NW,314,17.3,17.3,88,0.00,-SN,,0.00,WeatherDisplay:10.37,2013-02-20 06:56:00,
2013-02-20 02:01:00,18.1,15.2,29.77,NW,313,21.5,21.5,88,0.00,-SN,,0.00,WeatherDisplay:10.37,2013-02-20 07:01:00,
2013-02-20 02:06:00,18.1,15.2,29.77,WNW,303,18.4,18.4,88,0.00,-SN,,0.00,WeatherDisplay:10.37,2013-02-20 07:06:00,
2013-02-20 02:11:00,18.1,15.2,29.77,NW,311,18.4,18.4,88,0.00,-SN,,0.00,WeatherDisplay:10.37,2013-02-20 07:11:00,
2013-02-20 02:16:00,18.0,14.7,29.77,WNW,295,15.0,15.0,87,0.00,-SN,,0.00,WeatherDisplay:10.37,2013-02-20 07:16:00,
2013-02-20 02:21:00,17.6,14.4,29.77,WNW,302,17.3,17.3,87,0.00,-SN,,0.00,WeatherDisplay:10.37,2013-02-20 07:21:00,
2013-02-20 02:26:00,17.4,14.2,29.77,NW,317,21.9,21.9,87,0.00,-SN,,0.00,WeatherDisplay:10.37,2013-02-20 07:26:00,
2013-02-20 02:31:00,17.2,14.3,29.77,WNW,303,17.3,17.3,88,0.00,-SN,,0.00,WeatherDisplay:10.37,2013-02-20 07:31:00,
2013-02-20 02:36:00,17.1,14.1,29.77,West,275,19.2,19.2,88,0.00,-SN,,0.00,WeatherDisplay:10.37,2013-02-20 07:36:00,
2013-02-20 02:41:00,17.1,13.9,29.77,West,272,19.6,19.6,87,0.00,-SN,,0.00,WeatherDisplay:10.37,2013-02-20 07:41:00,
2013-02-20 02:46:00,17.1,13.6,29.77,NNW,335,13.8,13.8,86,0.00,-SN,,0.00,WeatherDisplay:10.37,2013-02-20 07:46:00,
2013-02-20 02:51:00,16.9,13.7,29.77,WSW,257,17.3,17.3,87,0.00,-SN,,0.00,WeatherDisplay:10.37,2013-02-20 07:51:00,
2013-02-20 02:56:00,16.9,13.9,29.77,NNE,22,20.7,20.7,88,0.00,-SN,,0.00,WeatherDisplay:10.37,2013-02-20 07:56:00,
2013-02-20 03:05:00,16.7,12.2,29.77,WNW,298,33.4,33.4,82,0.00,-SN,,0.00,WeatherDisplay:10.37,2013-02-20 08:05:00,
2013-02-20 03:10:00,16.5,11.1,29.77,NW,319,29.9,29.9,79,0.00,-SN,,0.00,WeatherDisplay:10.37,2013-02-20 08:10:00,
2013-02-20 03:15:00,16.5,10.9,29.77,West,266,19.6,19.6,78,0.00,-SN,,0.00,WeatherDisplay:10.37,2013-02-20 08:15:00,
2013-02-20 03:20:00,16.5,10.9,29.77,WNW,295,23.0,23.0,78,0.00,-SN,,0.00,WeatherDisplay:10.37,2013-02-20 08:20:00,
2013-02-20 03:25:00,16.5,11.1,29.77,WNW,294,12.7,12.7,79,0.00,-SN,,0.00,WeatherDisplay:10.37,2013-02-20 08:25:00,
2013-02-20 03:30:00,16.5,11.7,29.77,WNW,298,20.7,20.7,81,0.00,-SN,,0.00,WeatherDisplay:10.37,2013-02-20 08:30:00,
2013-02-20 03:35:00,16.3,12.1,29.77,NW,304,15.0,15.0,83,0.00,-SN,,0.00,WeatherDisplay:10.37,2013-02-20 08:35:00,
2013-02-20 03:40:00,16.2,12.4,29.77,WNW,299,21.9,21.9,85,0.00,-SN,,0.00,WeatherDisplay:10.37,2013-02-20 08:40:00,
2013-02-20 03:45:00,16.2,13.0,29.77,NW,305,15.0,15.0,87,0.00,-SN,,0.00,WeatherDisplay:10.37,2013-02-20 08:45:00,
2013-02-20 03:50:00,16.2,13.2,29.77,NW,320,10.4,10.4,88,0.00,-SN,,0.00,WeatherDisplay:10.37,2013-02-20 08:50:00,
2013-02-20 03:55:00,16.2,13.5,29.80,WNW,294,12.3,12.3,89,0.00,-SN,,0.00,WeatherDisplay:10.37,2013-02-20 08:55:00,
2013-02-20 04:00:00,16.2,13.7,29.80,WSW,258,15.0,15.0,90,0.00,-SN,,0.00,WeatherDisplay:10.37,2013-02-20 09:00:00,
2013-02-20 04:05:00,16.2,13.7,29.80,WNW,298,17.3,17.3,90,0.00,-SN,,0.00,WeatherDisplay:10.37,2013-02-20 09:05:00,
2013-02-20 04:10:00,16.2,14.0,29.80,WNW,293,16.1,16.1,91,0.00,-SN,,0.00,WeatherDisplay:10.37,2013-02-20 09:10:00,
2013-02-20 04:15:00,16.0,13.8,29.80,NW,312,15.0,15.0,91,0.00,-SN,,0.00,WeatherDisplay:10.37,2013-02-20 09:15:00,
2013-02-20 04:20:00,16.0,13.8,29.80,NW,315,12.7,12.7,91,0.00,-SN,,0.00,WeatherDisplay:10.37,2013-02-20 09:20:00,
2013-02-20 04:25:00,16.0,13.8,29.80,WNW,299,10.4,10.4,91,0.00,-SN,,0.00,WeatherDisplay:10.37,2013-02-20 09:25:00,
2013-02-20 04:30:00,16.0,13.8,29.80,WNW,294,13.2,13.2,91,0.00,-SN,,0.00,WeatherDisplay:10.37,2013-02-20 09:30:00,
2013-02-20 04:35:00,15.8,13.6,29.80,NW,321,19.6,19.6,91,0.00,OVC,,0.00,WeatherDisplay:10.37,2013-02-20 09:35:00,
2013-02-20 04:40:00,15.8,13.6,29.80,West,275,16.1,16.1,91,0.00,OVC,,0.00,WeatherDisplay:10.37,2013-02-20 09:40:00,
2013-02-20 04:45:00,15.6,13.5,29.80,West,280,25.3,25.3,91,0.00,OVC,,0.00,WeatherDisplay:10.37,2013-02-20 09:45:00,
2013-02-20 04:50:00,15.4,13.0,29.80,WNW,301,23.0,23.0,90,0.00,-SN,,0.00,WeatherDisplay:10.37,2013-02-20 09:50:00,
2013-02-20 04:55:00,15.1,12.7,29.80,WNW,292,17.3,17.3,90,0.00,-SN,,0.00,WeatherDisplay:10.37,2013-02-20 09:55:00,
2013-02-20 05:00:00,14.7,11.8,29.80,West,276,19.6,19.6,88,0.00,-SN,,0.00,WeatherDisplay:10.37,2013-02-20 10:00:00,
2013-02-20 05:05:00,14.4,10.9,29.80,WNW,291,15.0,15.0,86,0.00,-SN,,0.00,WeatherDisplay:10.37,2013-02-20 10:05:00,
2013-02-20 05:10:00,14.4,10.4,29.83,WNW,301,19.6,19.6,84,0.00,-SN,,0.00,WeatherDisplay:10.37,2013-02-20 10:10:00,
2013-02-20 05:15:00,14.0,9.8,29.83,WNW,300,23.0,23.0,83,0.00,-SN,,0.00,WeatherDisplay:10.37,2013-02-20 10:15:00,
2013-02-20 05:20:00,13.8,9.6,29.83,WNW,303,18.4,18.4,83,0.00,-SN,,0.00,WeatherDisplay:10.37,2013-02-20 10:20:00,
2013-02-20 05:25:00,13.6,9.4,29.83,West,279,15.0,15.0,83,0.00,-SN,,0.00,WeatherDisplay:10.37,2013-02-20 10:25:00,
2013-02-20 05:30:00,13.5,9.3,29.83,NNW,334,18.4,18.4,83,0.00,-SN,,0.00,WeatherDisplay:10.37,2013-02-20 10:30:00,
2013-02-20 05:35:00,13.3,9.1,29.83,NNW,346,28.8,28.8,83,0.00,-SN,,0.00,WeatherDisplay:10.37,2013-02-20 10:35:00,
2013-02-20 05:40:00,13.3,9.1,29.83,SW,221,16.1,16.1,83,0.00,-SN,,0.00,WeatherDisplay:10.37,2013-02-20 10:40:00,
2013-02-20 05:45:00,13.1,8.9,29.83,NW,316,25.3,25.3,83,0.00,-SN,,0.00,WeatherDisplay:10.37,2013-02-20 10:45:00,
2013-02-20 05:50:00,13.1,8.9,29.83,WNW,297,23.0,23.0,83,0.00,-SN,,0.00,WeatherDisplay:10.37,2013-02-20 10:50:00,
2013-02-20 05:55:00,12.9,8.7,29.83,WNW,303,21.5,21.5,83,0.00,-SN,,0.00,WeatherDisplay:10.37,2013-02-20 10:55:00,
2013-02-20 06:00:00,12.9,8.7,29.83,WNW,297,17.4,17.4,83,0.00,-SN,,0.00,WeatherDisplay:10.37,2013-02-20 11:00:00,
2013-02-20 06:05:00,12.9,8.7,29.83,WNW,294,18.4,18.4,83,0.00,-SN,,0.00,WeatherDisplay:10.37,2013-02-20 11:05:00,
2013-02-20 06:10:00,12.9,8.7,29.83,NW,306,19.6,19.6,83,0.00,-SN,,0.00,WeatherDisplay:10.37,2013-02-20 11:10:00,
2013-02-20 06:15:00,12.9,8.7,29.83,WNW,303,19.7,19.7,83,0.00,-SN,,0.00,WeatherDisplay:10.37,2013-02-20 11:15:00,
2013-02-20 06:20:00,12.9,8.7,29.83,NNW,332,19.6,19.6,83,0.00,-SN,,0.00,WeatherDisplay:10.37,2013-02-20 11:20:00,
2013-02-20 06:25:00,12.7,8.6,29.83,SW,214,18.3,18.3,83,0.00,-SN,,0.00,WeatherDisplay:10.37,2013-02-20 11:25:00,
2013-02-20 06:30:00,12.7,8.6,29.83,NW,313,8.1,8.7,83,0.00,-SN,,0.00,WeatherDisplay:10.37,2013-02-20 11:30:00,
2013-02-20 06:35:00,12.7,8.6,29.83,NNW,337,17.3,17.3,83,0.00,-SN,,0.00,WeatherDisplay:10.37,2013-02-20 11:35:00,
2013-02-20 06:40:00,12.7,8.6,29.83,WNW,289,15.0,15.0,83,0.00,-SN,,0.00,WeatherDisplay:10.37,2013-02-20 11:40:00,
2013-02-20 06:45:00,12.7,8.6,29.83,WNW,288,20.7,20.7,83,0.00,-SN,,0.00,WeatherDisplay:10.37,2013-02-20 11:45:00,
2013-02-20 06:50:00,12.7,8.6,29.83,West,272,17.3,17.3,83,0.00,-SN,,0.00,WeatherDisplay:10.37,2013-02-20 11:50:00,
2013-02-20 06:55:00,12.7,8.6,29.85,NW,308,12.7,12.7,83,0.00,-SN,,0.00,WeatherDisplay:10.37,2013-02-20 11:55:00,
2013-02-20 07:00:00,12.7,8.6,29.85,WNW,288,19.6,19.6,83,0.00,-SN,,0.00,WeatherDisplay:10.37,2013-02-20 12:00:00,
2013-02-20 07:05:00,12.7,8.6,29.85,NW,312,15.0,15.0,83,0.00,-SN,,0.00,WeatherDisplay:10.37,2013-02-20 12:05:00,
2013-02-20 07:10:00,12.7,8.6,29.85,NNW,337,12.7,12.7,83,0.00,-SN,,0.00,WeatherDisplay:10.37,2013-02-20 12:10:00,
2013-02-20 07:15:00,12.9,8.7,29.85,NW,304,11.5,11.5,83,0.00,-SN,,0.00,WeatherDisplay:10.37,2013-02-20 12:15:00,
2013-02-20 07:20:00,12.9,8.7,29.85,WSW,258,11.5,11.5,83,0.00,-SN,,0.00,WeatherDisplay:10.37,2013-02-20 12:20:00,
2013-02-20 07:25:00,12.9,8.7,29.85,WNW,291,12.7,12.7,83,0.00,-SN,,0.00,WeatherDisplay:10.37,2013-02-20 12:25:00,
2013-02-20 07:30:00,12.9,8.7,29.85,WNW,294,11.5,11.5,83,0.00,-SN,,0.00,WeatherDisplay:10.37,2013-02-20 12:30:00,
2013-02-20 07:35:00,12.9,8.7,29.85,NW,315,17.3,17.3,83,0.00,-SN,,0.00,WeatherDisplay:10.37,2013-02-20 12:35:00,
2013-02-20 07:40:00,12.9,8.7,29.85,WNW,294,15.0,15.0,83,0.00,-SN,,0.00,WeatherDisplay:10.37,2013-02-20 12:40:00,
2013-02-20 07:45:00,12.9,8.7,29.85,WNW,293,17.9,17.9,83,0.00,-SN,,0.00,WeatherDisplay:10.37,2013-02-20 12:45:00,
2013-02-20 07:50:00,13.1,8.9,29.85,North,0,19.6,19.6,83,0.00,-SN,,0.00,WeatherDisplay:10.37,2013-02-20 12:50:00,
2013-02-20 07:55:00,13.1,8.9,29.85,WNW,284,12.7,12.7,83,0.00,-SN,,0.00,WeatherDisplay:10.37,2013-02-20 12:55:00,
2013-02-20 08:00:00,13.1,8.9,29.85,WNW,288,16.8,16.8,83,0.00,-SN,,0.00,WeatherDisplay:10.37,2013-02-20 13:00:00,
2013-02-20 08:05:00,13.3,9.1,29.85,NNW,342,15.4,15.4,83,0.00,-SN,,0.00,WeatherDisplay:10.37,2013-02-20 13:05:00,
2013-02-20 08:10:00,13.3,9.1,29.85,NW,315,12.7,12.7,83,0.00,-SN,,0.00,WeatherDisplay:10.37,2013-02-20 13:10:00,
2013-02-20 08:15:00,13.1,8.9,29.85,NW,310,15.0,15.0,83,0.00,-SN,,0.00,WeatherDisplay:10.37,2013-02-20 13:15:00,
2013-02-20 08:20:00,13.1,8.9,29.85,WNW,292,18.4,18.4,83,0.00,-SN,,0.00,WeatherDisplay:10.37,2013-02-20 13:20:00,
2013-02-20 08:25:00,13.1,8.9,29.85,NW,314,17.3,17.3,83,0.00,-SN,,0.00,WeatherDisplay:10.37,2013-02-20 13:25:00,
2013-02-20 08:30:00,13.3,9.1,29.85,West,280,16.1,16.1,83,0.00,-SN,,0.00,WeatherDisplay:10.37,2013-02-20 13:30:00,
2013-02-20 08:35:00,13.3,9.1,29.85,West,266,13.8,13.8,83,0.00,-SN,,0.00,WeatherDisplay:10.37,2013-02-20 13:35:00,
2013-02-20 08:40:00,13.3,9.1,29.85,West,261,20.7,20.7,83,0.00,-SN,,0.00,WeatherDisplay:10.37,2013-02-20 13:40:00,
2013-02-20 08:45:00,13.5,9.3,29.85,NW,313,12.7,12.7,83,0.00,-SN,,0.00,WeatherDisplay:10.37,2013-02-20 13:45:00,
2013-02-20 08:50:00,13.5,9.3,29.85,WNW,302,15.0,15.0,83,0.00,-SN,,0.00,WeatherDisplay:10.37,2013-02-20 13:50:00,
2013-02-20 08:55:00,13.3,9.1,29.85,WNW,303,19.6,19.6,83,0.00,-SN,,0.00,WeatherDisplay:10.37,2013-02-20 13:55:00,
2013-02-20 09:00:00,13.5,9.3,29.85,West,271,24.2,24.2,83,0.00,-SN,,0.00,WeatherDisplay:10.37,2013-02-20 14:00:00,
2013-02-20 09:05:00,13.5,9.3,29.85,WNW,298,15.0,15.0,83,0.00,-SN,,0.00,WeatherDisplay:10.37,2013-02-20 14:05:00,
2013-02-20 09:10:00,13.6,9.4,29.85,NNW,333,13.8,13.8,83,0.00,-SN,,0.00,WeatherDisplay:10.37,2013-02-20 14:10:00,
2013-02-20 09:15:00,13.5,9.3,29.85,West,278,10.4,10.4,83,0.00,-SN,,0.00,WeatherDisplay:10.37,2013-02-20 14:15:00,
2013-02-20 09:20:00,13.5,9.3,29.85,NW,304,13.8,13.8,83,0.00,OVC,,0.00,WeatherDisplay:10.37,2013-02-20 14:20:00,
2013-02-20 09:25:00,13.6,9.4,29.88,NW,325,12.7,12.7,83,0.00,OVC,,0.00,WeatherDisplay:10.37,2013-02-20 14:25:00,
2013-02-20 09:30:00,13.8,9.6,29.88,WNW,286,12.7,12.7,83,0.00,OVC,,0.00,WeatherDisplay:10.37,2013-02-20 14:30:00,
2013-02-20 09:35:00,14.2,9.4,29.88,WNW,288,19.2,19.2,81,0.00,OVC,,0.00,WeatherDisplay:10.37,2013-02-20 14:35:00,
2013-02-20 09:40:00,14.4,9.3,29.85,WNW,288,11.5,11.5,80,0.00,OVC,,0.00,WeatherDisplay:10.37,2013-02-20 14:40:00,
2013-02-20 09:45:00,14.4,9.0,29.85,West,281,15.0,15.0,79,0.00,OVC,,0.00,WeatherDisplay:10.37,2013-02-20 14:45:00,
2013-02-20 09:50:00,14.4,8.8,29.85,WNW,298,21.9,21.9,78,0.00,OVC,,0.00,WeatherDisplay:10.37,2013-02-20 14:50:00,
2013-02-20 09:55:00,14.4,8.5,29.85,NW,304,17.3,17.3,77,0.00,OVC,,0.00,WeatherDisplay:10.37,2013-02-20 14:55:00,
2013-02-20 10:00:00,14.4,8.2,29.85,NW,321,16.1,16.1,76,0.00,OVC,,0.00,WeatherDisplay:10.37,2013-02-20 15:00:00,
2013-02-20 10:05:00,14.4,8.2,29.85,NW,304,12.7,12.7,76,0.00,OVC,,0.00,WeatherDisplay:10.37,2013-02-20 15:05:00,
2013-02-20 10:10:00,14.2,8.0,29.85,WNW,286,9.2,9.2,76,0.00,OVC,,0.00,WeatherDisplay:10.37,2013-02-20 15:10:00,
2013-02-20 10:15:00,14.4,8.5,29.85,NW,307,18.4,18.4,77,0.00,OVC,,0.00,WeatherDisplay:10.37,2013-02-20 15:15:00,
2013-02-20 10:20:00,14.5,8.6,29.85,WNW,301,17.3,17.3,77,0.00,OVC,,0.00,WeatherDisplay:10.37,2013-02-20 15:20:00,
2013-02-20 10:25:00,14.5,8.1,29.85,NW,309,12.7,12.7,75,0.00,OVC,,0.00,WeatherDisplay:10.37,2013-02-20 15:25:00,
2013-02-20 10:30:00,14.5,7.5,29.85,NW,306,12.7,12.7,73,0.00,OVC,,0.00,WeatherDisplay:10.37,2013-02-20 15:30:00,
2013-02-20 10:35:00,14.5,7.2,29.85,West,260,17.3,17.3,72,0.00,OVC,,0.00,WeatherDisplay:10.37,2013-02-20 15:35:00,
2013-02-20 10:40:00,14.4,6.4,29.85,NNW,330,13.2,13.2,70,0.00,OVC,,0.00,WeatherDisplay:10.37,2013-02-20 15:40:00,
2013-02-20 10:45:00,15.3,7.5,29.85,West,271,12.7,12.7,71,0.00,OVC,,0.00,WeatherDisplay:10.37,2013-02-20 15:45:00,
2013-02-20 10:50:00,15.4,4.7,29.85,NW,319,17.3,17.3,62,0.00,OVC,,0.00,WeatherDisplay:10.37,2013-02-20 15:50:00,
2013-02-20 10:55:00,15.3,4.2,29.85,West,281,21.9,21.9,61,0.00,OVC,,0.00,WeatherDisplay:10.37,2013-02-20 15:55:00,
2013-02-20 11:00:00,15.1,4.0,29.85,West,280,13.8,13.8,61,0.00,OVC,,0.00,WeatherDisplay:10.37,2013-02-20 16:00:00,
2013-02-20 11:05:00,15.1,5.4,29.85,NW,313,16.8,16.8,65,0.00, +SN,,0.00,WeatherDisplay:10.37,2013-02-20 16:05:00,
2013-02-20 11:10:00,15.3,5.3,29.88,West,280,17.3,17.3,64,0.00, +SN,,0.00,WeatherDisplay:10.37,2013-02-20 16:10:00,
2013-02-20 11:15:00,15.3,4.6,29.88,NW,313,12.7,12.7,62,0.00, +SN,,0.00,WeatherDisplay:10.37,2013-02-20 16:15:00,
2013-02-20 11:20:00,15.1,4.4,29.88,WNW,303,8.1,8.1,62,0.00, +SN,,0.00,WeatherDisplay:10.37,2013-02-20 16:20:00,
2013-02-20 11:25:00,14.7,3.3,29.88,West,271,25.3,25.3,60,0.00, +SN,,0.00,WeatherDisplay:10.37,2013-02-20 16:25:00,
2013-02-20 11:30:00,15.1,2.2,29.88,WNW,302,15.4,15.4,56,0.00, +SN,,0.00,WeatherDisplay:10.37,2013-02-20 16:30:00,
2013-02-20 11:35:00,14.9,1.2,29.88,WNW,286,25.7,25.7,54,0.00, +SN,,0.00,WeatherDisplay:10.37,2013-02-20 16:35:00,
2013-02-20 11:40:00,14.7,1.5,29.88,West,280,17.3,17.3,55,0.00, +SN,,0.00,WeatherDisplay:10.37,2013-02-20 16:40:00,
2013-02-20 11:45:00,14.9,1.6,29.88,NW,325,12.7,12.7,55,0.00, +SN,,0.00,WeatherDisplay:10.37,2013-02-20 16:45:00,
2013-02-20 11:50:00,14.9,1.2,29.88,West,280,27.6,27.6,54,0.00, +SN,,0.00,WeatherDisplay:10.37,2013-02-20 16:50:00,
2013-02-20 11:55:00,15.1,1.4,29.88,WNW,296,12.7,12.7,54,0.00, +SN,,0.00,WeatherDisplay:10.37,2013-02-20 16:55:00,
2013-02-20 12:00:00,14.9,0.8,29.88,North,4,18.4,18.4,53,0.00, +SN,,0.00,WeatherDisplay:10.37,2013-02-20 17:00:00,
2013-02-20 12:05:00,14.9,0.8,29.88,West,276,17.3,17.3,53,0.00, +SN,,0.00,WeatherDisplay:10.37,2013-02-20 17:05:00,
2013-02-20 12:10:00,15.1,0.6,29.88,WNW,287,19.6,19.6,52,0.00, +SN,,0.00,WeatherDisplay:10.37,2013-02-20 17:10:00,
2013-02-20 12:15:00,15.1,0.2,29.88,WNW,293,19.7,19.7,51,0.00, +SN,,0.00,WeatherDisplay:10.37,2013-02-20 17:15:00,
2013-02-20 12:20:00,15.1,0.6,29.88,WNW,290,12.7,12.7,52,0.00,-SN,,0.00,WeatherDisplay:10.37,2013-02-20 17:20:00,
2013-02-20 12:25:00,15.1,1.0,29.88,West,277,10.4,10.4,53,0.00,-SN,,0.00,WeatherDisplay:10.37,2013-02-20 17:25:00,
2013-02-20 12:30:00,15.1,1.4,29.88,WNW,297,15.4,15.4,54,0.00,-SN,,0.00,WeatherDisplay:10.37,2013-02-20 17:30:00,
2013-02-20 12:35:00,15.1,2.6,29.88,WNW,284,16.1,16.1,57,0.00,-SN,,0.00,WeatherDisplay:10.37,2013-02-20 17:35:00,
2013-02-20 12:40:00,15.3,2.7,29.88,NW,319,22.8,22.8,57,0.00,-SN,,0.00,WeatherDisplay:10.37,2013-02-20 17:40:00,
2013-02-20 12:45:00,15.3,4.2,29.88,North,353,9.2,9.2,61,0.00,-SN,,0.00,WeatherDisplay:10.37,2013-02-20 17:45:00,
2013-02-20 12:50:00,15.8,4.0,29.88,West,272,16.1,16.1,59,0.00, +SN,,0.00,WeatherDisplay:10.37,2013-02-20 17:50:00,
2013-02-20 12:55:00,16.5,4.3,29.85,NW,311,21.5,21.5,58,0.00, +SN,,0.00,WeatherDisplay:10.37,2013-02-20 17:55:00,
2013-02-20 13:00:00,17.2,4.2,29.85,NNW,331,17.3,17.3,56,0.00, +SN,,0.00,WeatherDisplay:10.37,2013-02-20 18:00:00,
2013-02-20 13:05:00,17.1,3.6,29.85,WNW,302,18.4,18.4,55,0.00,OVC,,0.00,WeatherDisplay:10.37,2013-02-20 18:05:00,
2013-02-20 13:10:00,17.1,4.4,29.85,WNW,289,19.6,19.6,57,0.00,OVC,,0.00,WeatherDisplay:10.37,2013-02-20 18:10:00,
2013-02-20 13:15:00,16.7,4.1,29.85,West,268,17.3,17.3,57,0.00,OVC,,0.00,WeatherDisplay:10.37,2013-02-20 18:15:00,
2013-02-20 13:20:00,16.7,3.7,29.85,NW,318,17.3,17.3,56,0.00,-SN,,0.00,WeatherDisplay:10.37,2013-02-20 18:20:00,
2013-02-20 13:25:00,16.9,1.4,29.85,NNW,339,19.6,19.6,50,0.00,-SN,,0.00,WeatherDisplay:10.37,2013-02-20 18:25:00,
2013-02-20 13:30:00,17.1,2.0,29.85,WNW,297,13.2,13.2,51,0.00,-SN,,0.00,WeatherDisplay:10.37,2013-02-20 18:30:00,
2013-02-20 13:35:00,16.9,1.8,29.85,West,267,12.7,12.7,51,0.00,-SN,,0.00,WeatherDisplay:10.37,2013-02-20 18:35:00,
2013-02-20 13:40:00,16.9,1.4,29.88,WNW,283,16.1,16.1,50,0.00,-SN,,0.00,WeatherDisplay:10.37,2013-02-20 18:40:00,
2013-02-20 13:45:00,16.5,0.2,29.88,NW,324,12.7,12.7,48,0.00,-SN,,0.00,WeatherDisplay:10.37,2013-02-20 18:45:00,
2013-02-20 13:50:00,16.3,0.5,29.88,WNW,297,17.3,17.3,49,0.00,-SN,,0.00,WeatherDisplay:10.37,2013-02-20 18:50:00,
2013-02-20 13:55:00,16.0,0.2,29.88,WNW,292,21.9,21.9,49,0.00,-SN,,0.00,WeatherDisplay:10.37,2013-02-20 18:55:00,
2013-02-20 14:00:00,16.0,1.0,29.88,WNW,294,14.5,14.5,51,0.00,-SN,,0.00,WeatherDisplay:10.37,2013-02-20 19:00:00,
2013-02-20 14:05:00,16.0,1.4,29.88,WNW,301,10.4,10.4,52,0.00,-SN,,0.00,WeatherDisplay:10.37,2013-02-20 19:05:00,
2013-02-20 14:10:00,16.5,1.1,29.88,NNW,339,16.1,16.1,50,0.00,-SN,,0.00,WeatherDisplay:10.37,2013-02-20 19:10:00,
2013-02-20 14:15:00,16.3,0.5,29.88,NW,319,15.0,15.0,49,0.00,-SN,,0.00,WeatherDisplay:10.37,2013-02-20 19:15:00,
2013-02-20 14:20:00,16.5,0.2,29.88,NW,321,18.4,18.4,48,0.00,-SN,,0.00,WeatherDisplay:10.37,2013-02-20 19:20:00,
2013-02-20 14:25:00,16.7,0.4,29.88,NW,311,12.7,12.7,48,0.00,-SN,,0.00,WeatherDisplay:10.37,2013-02-20 19:25:00,
2013-02-20 14:30:00,16.9,0.1,29.88,NW,324,16.1,16.1,47,0.00,-SN,,0.00,WeatherDisplay:10.37,2013-02-20 19:30:00,
2013-02-20 14:35:00,16.3,0.0,29.88,NW,305,24.2,24.2,48,0.00,-SN,,0.00,WeatherDisplay:10.37,2013-02-20 19:35:00,
2013-02-20 14:40:00,16.5,1.1,29.88,WSW,257,17.3,17.3,50,0.00,-SN,,0.00,WeatherDisplay:10.37,2013-02-20 19:40:00,
2013-02-20 14:45:00,16.5,2.3,29.88,WNW,290,15.0,15.0,53,0.00,-SN,,0.00,WeatherDisplay:10.37,2013-02-20 19:45:00,
2013-02-20 14:50:00,16.5,1.5,29.88,SW,227,17.3,17.3,51,0.00,-SN,,0.00,WeatherDisplay:10.37,2013-02-20 19:50:00,
2013-02-20 14:55:00,16.3,0.9,29.88,NW,313,24.2,24.2,50,0.00,-SN,,0.00,WeatherDisplay:10.37,2013-02-20 19:55:00,
2013-02-20 15:00:00,15.8,0.8,29.88,NNW,338,19.6,19.6,51,0.00,-SN,,0.00,WeatherDisplay:10.37,2013-02-20 20:00:00,
2013-02-20 15:05:00,15.8,2.1,29.88,NNW,343,25.3,25.3,54,0.00,-SN,,0.00,WeatherDisplay:10.37,2013-02-20 20:05:00,
2013-02-20 15:10:00,16.0,3.0,29.88,NNW,328,19.6,19.6,56,0.00,-SN,,0.00,WeatherDisplay:10.37,2013-02-20 20:10:00,
2013-02-20 15:15:00,16.0,2.6,29.88,WNW,297,15.0,15.0,55,0.00,-SN,,0.00,WeatherDisplay:10.37,2013-02-20 20:15:00,
2013-02-20 15:20:00,16.2,2.4,29.88,NNW,331,21.9,21.9,54,0.00,-SN,,0.00,WeatherDisplay:10.37,2013-02-20 20:20:00,
2013-02-20 15:25:00,16.2,2.4,29.91,NNW,341,19.7,19.7,54,0.00,-SN,,0.00,WeatherDisplay:10.37,2013-02-20 20:25:00,
2013-02-20 15:30:00,16.2,2.0,29.91,WNW,290,16.1,16.1,53,0.00,-SN,,0.00,WeatherDisplay:10.37,2013-02-20 20:30:00,
2013-02-20 15:35:00,16.3,2.6,29.91,NNW,335,12.7,12.7,54,0.00,-SN,,0.00,WeatherDisplay:10.37,2013-02-20 20:35:00,
2013-02-20 15:40:00,17.1,2.0,29.91,West,281,11.5,11.5,51,0.00,-SN,,0.00,WeatherDisplay:10.37,2013-02-20 20:40:00,
2013-02-20 15:45:00,17.1,1.6,29.91,WNW,297,21.9,21.9,50,0.00,-SN,,0.00,WeatherDisplay:10.37,2013-02-20 20:45:00,
2013-02-20 15:50:00,16.7,2.9,29.91,NW,326,20.7,20.7,54,0.00,-SN,,0.00,WeatherDisplay:10.37,2013-02-20 20:50:00,
2013-02-20 15:55:00,16.5,4.3,29.91,NW,318,15.0,15.0,58,0.00,-SN,,0.00,WeatherDisplay:10.37,2013-02-20 20:55:00,
2013-02-20 16:00:00,16.2,5.4,29.91,NW,306,21.9,21.9,62,0.00,-SN,,0.00,WeatherDisplay:10.37,2013-02-20 21:00:00,
2013-02-20 16:05:00,16.0,5.6,29.91,North,7,25.3,25.3,63,0.00,-SN,,0.00,WeatherDisplay:10.37,2013-02-20 21:05:00,
2013-02-20 16:10:00,15.8,4.4,29.91,NW,308,15.0,15.0,60,0.00,-SN,,0.00,WeatherDisplay:10.37,2013-02-20 21:10:00,
2013-02-20 16:15:00,15.4,3.3,29.91,NNW,328,12.7,12.7,58,0.00,-SN,,0.00,WeatherDisplay:10.37,2013-02-20 21:15:00,
2013-02-20 16:20:00,15.4,3.6,29.91,North,353,21.9,21.9,59,0.00,-SN,,0.00,WeatherDisplay:10.37,2013-02-20 21:20:00,
2013-02-20 16:25:00,15.4,2.5,29.94,WNW,299,17.3,17.3,56,0.00,-SN,,0.00,WeatherDisplay:10.37,2013-02-20 21:25:00,
2013-02-20 16:30:00,15.4,2.5,29.94,WNW,295,18.4,18.4,56,0.00,-SN,,0.00,WeatherDisplay:10.37,2013-02-20 21:30:00,
2013-02-20 16:35:00,15.3,3.1,29.94,WNW,287,12.7,12.7,58,0.00,-SN,,0.00,WeatherDisplay:10.37,2013-02-20 21:35:00,
2013-02-20 16:40:00,14.9,3.5,29.94,NW,325,26.1,26.1,60,0.00,-SN,,0.00,WeatherDisplay:10.37,2013-02-20 21:40:00,
2013-02-20 16:45:00,14.9,3.1,29.94,NNW,331,12.7,12.7,59,0.00,-SN,,0.00,WeatherDisplay:10.37,2013-02-20 21:45:00,
2013-02-20 16:50:00,15.1,3.7,29.94,NNW,328,19.6,19.6,60,0.00,-SN,,0.00,WeatherDisplay:10.37,2013-02-20 21:50:00,
2013-02-20 16:55:00,15.1,3.3,29.94,North,357,15.0,15.0,59,0.00,-SN,,0.00,WeatherDisplay:10.37,2013-02-20 21:55:00,
2013-02-20 17:00:00,14.9,3.1,29.94,WNW,303,15.0,15.0,59,0.00,-SN,,0.00,WeatherDisplay:10.37,2013-02-20 22:00:00,
2013-02-20 17:05:00,14.9,3.9,29.94,NW,313,15.0,15.0,61,0.00,-SN,,0.00,WeatherDisplay:10.37,2013-02-20 22:05:00,
2013-02-20 17:10:00,14.9,5.2,29.97,West,273,15.0,15.0,65,0.00,-SN,,0.00,WeatherDisplay:10.37,2013-02-20 22:10:00,
2013-02-20 17:15:00,14.7,7.0,29.97,WNW,289,17.3,17.3,71,0.00,-SN,,0.00,WeatherDisplay:10.37,2013-02-20 22:15:00,
2013-02-20 17:20:00,14.5,8.4,29.97,WNW,292,15.0,15.0,76,0.00,-SN,,0.00,WeatherDisplay:10.37,2013-02-20 22:20:00,
2013-02-20 17:25:00,14.4,9.0,29.97,NW,312,12.7,12.7,79,0.00,-SN,,0.00,WeatherDisplay:10.37,2013-02-20 22:25:00,
2013-02-20 17:30:00,14.4,9.3,29.97,NNW,335,15.0,15.0,80,0.00,-SN,,0.00,WeatherDisplay:10.37,2013-02-20 22:30:00,
2013-02-20 17:35:00,14.4,9.0,29.97,WNW,292,17.3,17.3,79,0.00,-SN,,0.00,WeatherDisplay:10.37,2013-02-20 22:35:00,
2013-02-20 17:40:00,14.4,7.9,29.97,NNW,332,15.0,15.0,75,0.00,-SN,,0.00,WeatherDisplay:10.37,2013-02-20 22:40:00,
2013-02-20 17:45:00,14.2,7.1,29.97,NNW,338,15.0,15.0,73,0.00,-SN,,0.00,WeatherDisplay:10.37,2013-02-20 22:45:00,
2013-02-20 17:50:00,14.2,6.2,29.97,NNW,327,16.1,16.1,70,0.00,-SN,,0.00,WeatherDisplay:10.37,2013-02-20 22:50:00,
2013-02-20 17:55:00,14.2,5.5,29.97,NNW,332,23.0,23.0,68,0.00,-SN,,0.00,WeatherDisplay:10.37,2013-02-20 22:55:00,
2013-02-20 18:00:00,14.2,5.9,29.97,NW,325,15.0,15.0,69,0.00,-SN,,0.00,WeatherDisplay:10.37,2013-02-20 23:00:00,
2013-02-20 18:05:00,14.2,6.8,29.97,NNW,334,12.7,12.7,72,0.00,-SN,,0.00,WeatherDisplay:10.37,2013-02-20 23:05:00,
2013-02-20 18:10:00,14.2,7.4,29.97,NNW,331,8.1,8.1,74,0.00,-SN,,0.00,WeatherDisplay:10.37,2013-02-20 23:10:00,
2013-02-20 18:15:00,14.2,7.7,29.97,WNW,295,12.7,12.7,75,0.00,-SN,,0.00,WeatherDisplay:10.37,2013-02-20 23:15:00,
2013-02-20 18:20:00,14.2,8.6,29.97,NNW,329,10.4,10.4,78,0.00,-SN,,0.00,WeatherDisplay:10.37,2013-02-20 23:20:00,
2013-02-20 18:25:00,14.2,8.9,29.97,NW,316,8.1,8.1,79,0.00,-SN,,0.00,WeatherDisplay:10.37,2013-02-20 23:25:00,
2013-02-20 18:30:00,14.2,9.1,29.97,NNW,335,13.8,13.8,80,0.00,-SN,,0.00,WeatherDisplay:10.37,2013-02-20 23:30:00,
2013-02-20 18:35:00,14.4,9.3,29.97,WNW,285,17.3,17.3,80,0.00,-SN,,0.00,WeatherDisplay:10.37,2013-02-20 23:35:00,
2013-02-20 18:40:00,14.4,8.8,29.97,West,280,12.7,12.7,78,0.00,-SN,,0.00,WeatherDisplay:10.37,2013-02-20 23:40:00,
2013-02-20 18:45:00,14.2,8.6,29.97,WNW,291,15.0,15.0,78,0.00,-SN,,0.00,WeatherDisplay:10.37,2013-02-20 23:45:00,
2013-02-20 18:50:00,14.2,8.9,29.97,NNW,342,13.2,13.2,79,0.00,-SN,,0.00,WeatherDisplay:10.37,2013-02-20 23:50:00,
2013-02-20 18:55:00,14.2,9.1,30.00,NW,311,10.4,10.4,80,0.00,-SN,,0.00,WeatherDisplay:10.37,2013-02-20 23:55:00,
2013-02-20 19:00:00,14.0,9.5,30.00,NNW,327,12.7,12.7,82,0.00,-SN,,0.00,WeatherDisplay:10.37,2013-02-21 00:00:00,
2013-02-20 19:05:00,14.0,9.5,30.00,NW,309,12.7,12.7,82,0.00,OVC,,0.00,WeatherDisplay:10.37,2013-02-21 00:05:00,
2013-02-20 19:10:00,13.8,9.3,30.00,NW,318,10.4,10.4,82,0.00,OVC,,0.00,WeatherDisplay:10.37,2013-02-21 00:10:00,
2013-02-20 19:16:00,13.8,9.3,30.00,NW,317,15.0,15.0,82,0.00,OVC,,0.00,WeatherDisplay:10.37,2013-02-21 00:16:00,
2013-02-20 19:21:00,13.8,9.3,30.00,WNW,297,15.0,15.0,82,0.00,OVC,,0.00,WeatherDisplay:10.37,2013-02-21 00:21:00,
2013-02-20 19:26:00,13.8,9.3,30.00,NW,308,6.9,6.9,82,0.00,OVC,,0.00,WeatherDisplay:10.37,2013-02-21 00:26:00,
2013-02-20 19:31:00,13.8,9.3,30.00,NNW,342,11.5,11.5,82,0.00,OVC,,0.00,WeatherDisplay:10.37,2013-02-21 00:31:00,
2013-02-20 19:36:00,13.6,9.2,30.00,NNW,335,9.6,9.6,82,0.00,OVC,,0.00,WeatherDisplay:10.37,2013-02-21 00:36:00,
2013-02-20 19:41:00,13.6,9.2,30.00,NW,308,10.4,10.4,82,0.00,OVC,,0.00,WeatherDisplay:10.37,2013-02-21 00:41:00,
2013-02-20 19:46:00,13.6,9.2,30.00,WNW,290,12.7,12.7,82,0.00,OVC,,0.00,WeatherDisplay:10.37,2013-02-21 00:46:00,
2013-02-20 19:51:00,13.5,9.0,30.00,NW,307,12.7,12.7,82,0.00,OVC,,0.00,WeatherDisplay:10.37,2013-02-21 00:51:00,
2013-02-20 19:56:00,13.5,9.0,30.00,WSW,245,11.5,11.5,82,0.00,OVC,,0.00,WeatherDisplay:10.37,2013-02-21 00:56:00,
2013-02-20 20:01:00,13.5,9.0,30.00,WNW,285,10.4,10.4,82,0.00,OVC,,0.00,WeatherDisplay:10.37,2013-02-21 01:01:00,
2013-02-20 20:06:00,13.5,9.0,30.00,NW,321,15.0,15.0,82,0.00,OVC,,0.00,WeatherDisplay:10.37,2013-02-21 01:06:00,
2013-02-20 20:11:00,13.5,9.0,30.00,NW,304,15.0,15.0,82,0.00,OVC,,0.00,WeatherDisplay:10.37,2013-02-21 01:11:00,
2013-02-20 20:16:00,13.5,9.0,30.00,WNW,282,11.5,11.5,82,0.00,OVC,,0.00,WeatherDisplay:10.37,2013-02-21 01:16:00,
2013-02-20 20:21:00,13.5,9.0,30.00,NNW,331,12.7,12.7,82,0.00,OVC,,0.00,WeatherDisplay:10.37,2013-02-21 01:21:00,
2013-02-20 20:26:00,13.5,9.0,29.97,NW,313,12.7,12.7,82,0.00,OVC,,0.00,WeatherDisplay:10.37,2013-02-21 01:26:00,
2013-02-20 20:31:00,13.5,9.0,29.97,WNW,299,12.7,12.7,82,0.00,OVC,,0.00,WeatherDisplay:10.37,2013-02-21 01:31:00,
2013-02-20 20:36:00,13.6,9.2,29.97,WNW,287,17.3,17.3,82,0.00,OVC,,0.00,WeatherDisplay:10.37,2013-02-21 01:36:00,
2013-02-20 20:41:00,13.6,9.2,30.00,West,270,12.7,12.7,82,0.00,OVC,,0.00,WeatherDisplay:10.37,2013-02-21 01:41:00,
2013-02-20 20:46:00,13.6,9.2,30.00,NW,324,12.7,12.7,82,0.00,OVC,,0.00,WeatherDisplay:10.37,2013-02-21 01:46:00,
2013-02-20 20:51:00,13.6,9.2,30.00,NNW,340,18.4,18.4,82,0.00,OVC,,0.00,WeatherDisplay:10.37,2013-02-21 01:51:00,
2013-02-20 20:56:00,13.6,9.2,30.00,NNW,338,12.3,12.3,82,0.00,OVC,,0.00,WeatherDisplay:10.37,2013-02-21 01:56:00,
2013-02-20 21:01:00,13.8,9.3,30.00,WNW,297,15.0,15.0,82,0.00,OVC,,0.00,WeatherDisplay:10.37,2013-02-21 02:01:00,
2013-02-20 21:06:00,13.8,9.3,30.00,West,276,19.6,19.6,82,0.00,OVC,,0.00,WeatherDisplay:10.37,2013-02-21 02:06:00,
2013-02-20 21:11:00,13.8,9.3,30.00,NNW,337,9.2,9.2,82,0.00,OVC,,0.00,WeatherDisplay:10.37,2013-02-21 02:11:00,
2013-02-20 21:16:00,13.8,9.3,30.00,NNW,332,17.3,17.3,82,0.00,OVC,,0.00,WeatherDisplay:10.37,2013-02-21 02:16:00,
2013-02-20 21:21:00,13.8,9.3,30.00,NW,311,17.3,17.3,82,0.00,OVC,,0.00,WeatherDisplay:10.37,2013-02-21 02:21:00,
2013-02-20 21:26:00,13.8,9.3,30.00,NW,316,11.5,11.5,82,0.00,OVC,,0.00,WeatherDisplay:10.37,2013-02-21 02:26:00,
2013-02-20 21:31:00,13.6,9.2,30.00,NW,316,14.5,14.5,82,0.00,OVC,,0.00,WeatherDisplay:10.37,2013-02-21 02:31:00,
2013-02-20 21:36:00,13.6,9.2,30.00,NW,313,11.5,11.5,82,0.00,OVC,,0.00,WeatherDisplay:10.37,2013-02-21 02:36:00,
2013-02-20 21:41:00,13.6,9.2,30.00,WNW,284,15.0,15.0,82,0.00,OVC,,0.00,WeatherDisplay:10.37,2013-02-21 02:41:00,
2013-02-20 21:46:00,13.5,9.0,30.00,NNW,327,13.2,13.2,82,0.00,OVC,,0.00,WeatherDisplay:10.37,2013-02-21 02:46:00,
2013-02-20 21:51:00,13.5,9.0,30.00,NW,318,9.2,9.2,82,0.00,OVC,,0.00,WeatherDisplay:10.37,2013-02-21 02:51:00,
2013-02-20 21:56:00,13.5,9.0,30.00,NNW,343,15.0,15.0,82,0.00,OVC,,0.00,WeatherDisplay:10.37,2013-02-21 02:56:00,
2013-02-20 22:01:00,13.5,9.0,30.00,NW,307,9.2,9.2,82,0.00,-SN,,0.00,WeatherDisplay:10.37,2013-02-21 03:01:00,
2013-02-20 22:06:00,13.5,9.0,30.00,NW,305,12.3,12.3,82,0.00,-SN,,0.00,WeatherDisplay:10.37,2013-02-21 03:06:00,
2013-02-20 22:11:00,13.5,9.0,30.00,NNW,329,13.6,13.6,82,0.00,-SN,,0.00,WeatherDisplay:10.37,2013-02-21 03:11:00,
2013-02-20 22:16:00,13.5,9.0,30.00,WNW,289,9.2,9.2,82,0.00,-SN,,0.00,WeatherDisplay:10.37,2013-02-21 03:16:00,
2013-02-20 22:21:00,13.6,9.2,30.00,WNW,297,18.4,18.4,82,0.00,-SN,,0.00,WeatherDisplay:10.37,2013-02-21 03:21:00,
2013-02-20 22:26:00,13.6,9.2,30.00,WNW,292,9.2,9.2,82,0.00,-SN,,0.00,WeatherDisplay:10.37,2013-02-21 03:26:00,
2013-02-20 22:31:00,13.5,9.0,30.00,WNW,298,10.4,10.4,82,0.00,-SN,,0.00,WeatherDisplay:10.37,2013-02-21 03:31:00,
2013-02-20 22:36:00,13.5,9.0,30.00,NW,309,15.0,15.0,82,0.00,-SN,,0.00,WeatherDisplay:10.37,2013-02-21 03:36:00,
2013-02-20 22:41:00,13.5,9.0,30.00,NW,311,10.9,10.9,82,0.00,-SN,,0.00,WeatherDisplay:10.37,2013-02-21 03:41:00,
2013-02-20 22:46:00,13.3,8.8,30.00,NNW,343,15.0,15.0,82,0.00,-SN,,0.00,WeatherDisplay:10.37,2013-02-21 03:46:00,
2013-02-20 22:51:00,13.3,8.8,30.00,WNW,301,12.7,12.7,82,0.00,-SN,,0.00,WeatherDisplay:10.37,2013-02-21 03:51:00,
2013-02-20 22:56:00,13.3,8.8,30.00,WNW,299,15.0,15.0,82,0.00,-SN,,0.00,WeatherDisplay:10.37,2013-02-21 03:56:00,
2013-02-20 23:01:00,13.5,9.0,30.00,NNW,332,18.4,18.4,82,0.00,-SN,,0.00,WeatherDisplay:10.37,2013-02-21 04:01:00,
2013-02-20 23:06:00,13.5,9.0,30.00,NW,304,13.8,13.8,82,0.00,-SN,,0.00,WeatherDisplay:10.37,2013-02-21 04:06:00,
2013-02-20 23:11:00,13.5,9.0,30.00,NNW,343,18.4,18.4,82,0.00,-SN,,0.00,WeatherDisplay:10.37,2013-02-21 04:11:00,
2013-02-20 23:16:00,13.5,9.0,30.00,NW,304,12.7,12.7,82,0.00,-SN,,0.00,WeatherDisplay:10.37,2013-02-21 04:16:00,
2013-02-20 23:21:00,13.3,8.8,30.00,WNW,284,11.5,11.5,82,0.00,-SN,,0.00,WeatherDisplay:10.37,2013-02-21 04:21:00,
2013-02-20 23:26:00,13.3,8.8,30.00,West,280,16.8,16.8,82,0.00,-SN,,0.00,WeatherDisplay:10.37,2013-02-21 04:26:00,
2013-02-20 23:31:00,13.3,8.8,30.00,NW,322,17.3,17.3,82,0.00,-SN,,0.00,WeatherDisplay:10.37,2013-02-21 04:31:00,
2013-02-20 23:36:00,13.3,8.8,30.00,NW,314,9.2,9.2,82,0.00,-SN,,0.00,WeatherDisplay:10.37,2013-02-21 04:36:00,
2013-02-20 23:41:00,13.3,8.8,30.00,WNW,296,17.3,17.3,82,0.00,-SN,,0.00,WeatherDisplay:10.37,2013-02-21 04:41:00,
2013-02-20 23:47:00,13.3,8.8,30.00,NNW,330,11.5,11.5,82,0.00,-SN,,0.00,WeatherDisplay:10.37,2013-02-21 04:47:00,
2013-02-20 23:52:00,13.1,8.6,30.00,NW,321,12.7,12.7,82,0.00,-SN,,0.00,WeatherDisplay:10.37,2013-02-21 04:52:00,
2013-02-20 23:57:00,13.1,8.6,30.00,WNW,300,19.7,19.7,82,0.00,-SN,,0.00,WeatherDisplay:10.37,2013-02-21 04:57:00,